AMX1681 CYUL-MMMX

Flight info

Callsign AMX1681
Flight time N/A
Altitude 34000
Route FAWNS DCT BUGSY DCT SYR DCT EWC DCT AIR/N0446F360 DCT HNN DCT TONIO DCT VXV DCT MCB DCT TBD M575 KENGS M345 SEAGL/N0444F380 M345 AXEXO UM345 PAZ UT154 ENAGA ENAGA3B
Aircraft B738/M-SDE2E3FGHIRWXY/LB1

Departure

Time 2026-05-05 17:06
Airport Montreal / Pierre Elliott Trudeau International Airport (CYUL)

Arrival

Time N/A
Airport Mexico City Benito Juárez International Airport (MMMX)
Time Latitude Longitude Altitude Speed Heading
2026-05-05 16:57 45.46759 -73.73443 111 ft 0 kts 133°
2026-05-05 16:59 45.46740 -73.73414 109 ft 8 kts 133°
2026-05-05 16:59 45.46731 -73.73327 110 ft 9 kts 80°
2026-05-05 17:00 45.46747 -73.73273 109 ft 9 kts 58°
2026-05-05 17:00 45.46786 -73.73206 112 ft 9 kts 45°
2026-05-05 17:00 45.46829 -73.73147 112 ft 8 kts 44°
2026-05-05 17:00 45.46871 -73.73090 112 ft 8 kts 43°
2026-05-05 17:01 45.46912 -73.73035 112 ft 8 kts 43°
2026-05-05 17:01 45.46926 -73.73017 113 ft 8 kts 43°
2026-05-05 17:01 45.46939 -73.72999 116 ft 8 kts 43°
2026-05-05 17:01 45.47029 -73.72882 116 ft 7 kts 42°
2026-05-05 17:02 45.47069 -73.72831 117 ft 11 kts 41°
2026-05-05 17:02 45.47128 -73.72756 118 ft 11 kts 41°
2026-05-05 17:02 45.47167 -73.72708 119 ft 11 kts 41°
2026-05-05 17:02 45.47185 -73.72685 117 ft 11 kts 41°
2026-05-05 17:04 45.47499 -73.72022 120 ft 12 kts 131°
2026-05-05 17:04 45.47469 -73.71974 119 ft 1 kts 133°
2026-05-05 17:05 45.47459 -73.71959 122 ft 1 kts 133°
2026-05-05 17:05 45.47456 -73.71955 122 ft 1 kts 137°
2026-05-05 17:05 45.47415 -73.71964 121 ft 28 kts 210°
2026-05-05 17:05 45.47348 -73.72048 120 ft 51 kts 224°
2026-05-05 17:06 45.45923 -73.73938 390 ft 161 kts 225°
2026-05-05 17:06 45.45084 -73.75034 1029 ft 163 kts 218°
2026-05-05 17:06 45.44071 -73.75774 1878 ft 170 kts 210°
2026-05-05 17:06 45.42919 -73.76575 2139 ft 194 kts 211°
2026-05-05 17:07 45.41656 -73.77481 2309 ft 210 kts 211°
2026-05-05 17:07 45.40329 -73.78443 2519 ft 222 kts 211°
2026-05-05 17:07 45.38954 -73.79446 2992 ft 226 kts 213°
2026-05-05 17:07 45.37502 -73.80518 3264 ft 241 kts 212°
2026-05-05 17:08 45.35989 -73.81638 3763 ft 247 kts 212°
2026-05-05 17:08 45.34462 -73.82769 4393 ft 248 kts 212°
2026-05-05 17:08 45.33445 -73.83525 4754 ft 250 kts 212°
2026-05-05 17:08 45.31893 -73.84682 5328 ft 252 kts 213°
2026-05-05 17:09 45.30332 -73.85847 5985 ft 253 kts 213°
2026-05-05 17:09 45.28766 -73.87018 6577 ft 256 kts 213°
2026-05-05 17:09 45.27183 -73.88204 7135 ft 257 kts 214°
2026-05-05 17:09 45.25598 -73.89388 7723 ft 259 kts 214°
2026-05-05 17:10 45.23998 -73.90587 8254 ft 261 kts 215°
2026-05-05 17:10 45.22376 -73.91801 8795 ft 264 kts 215°
2026-05-05 17:10 45.20768 -73.93005 9327 ft 266 kts 215°
2026-05-05 17:10 45.19123 -73.94234 9838 ft 268 kts 215°
2026-05-05 17:11 45.17464 -73.95476 10231 ft 275 kts 215°
2026-05-05 17:11 45.15712 -73.96794 10333 ft 292 kts 215°
2026-05-05 17:11 45.13872 -73.98174 10469 ft 308 kts 214°
2026-05-05 17:11 45.11923 -73.99630 10592 ft 324 kts 214°
2026-05-05 17:12 45.09877 -74.01155 10702 ft 339 kts 214°
2026-05-05 17:12 45.07748 -74.02737 10820 ft 353 kts 213°
2026-05-05 17:12 45.05533 -74.04382 10922 ft 367 kts 213°
2026-05-05 17:12 45.03247 -74.06078 11159 ft 375 kts 213°
2026-05-05 17:13 45.00930 -74.07795 11608 ft 377 kts 213°
2026-05-05 17:13 44.98683 -74.09684 12061 ft 374 kts 221°
2026-05-05 17:13 44.96680 -74.12022 12497 ft 374 kts 226°
2026-05-05 17:13 44.94699 -74.14437 12946 ft 377 kts 225°
2026-05-05 17:14 44.92701 -74.16869 13411 ft 381 kts 225°
2026-05-05 17:14 44.90681 -74.19316 13813 ft 384 kts 225°
2026-05-05 17:14 44.88642 -74.21775 14240 ft 387 kts 225°
2026-05-05 17:14 44.86589 -74.24242 14693 ft 389 kts 225°
2026-05-05 17:15 44.84518 -74.26725 15126 ft 392 kts 225°
2026-05-05 17:15 44.82428 -74.29224 15514 ft 395 kts 225°
2026-05-05 17:15 44.80321 -74.31741 15932 ft 398 kts 225°
2026-05-05 17:15 44.78200 -74.34271 16360 ft 400 kts 225°
2026-05-05 17:16 44.76064 -74.36815 16768 ft 403 kts 225°
2026-05-05 17:16 44.73942 -74.39340 17154 ft 406 kts 225°
2026-05-05 17:16 44.71750 -74.41946 17555 ft 409 kts 224°
2026-05-05 17:16 44.69602 -74.44498 17928 ft 411 kts 224°
2026-05-05 17:17 44.67404 -74.47105 18278 ft 413 kts 224°
2026-05-05 17:17 44.65203 -74.49714 18610 ft 416 kts 224°
2026-05-05 17:17 44.62980 -74.52347 18935 ft 418 kts 224°
2026-05-05 17:17 44.60754 -74.54980 19259 ft 420 kts 224°
2026-05-05 17:18 44.58511 -74.57630 19576 ft 422 kts 224°
2026-05-05 17:18 44.56241 -74.60309 19888 ft 425 kts 224°
2026-05-05 17:18 44.53979 -74.62978 20204 ft 427 kts 224°
2026-05-05 17:18 44.53232 -74.63857 20295 ft 428 kts 224°
2026-05-05 17:19 44.49426 -74.68338 20806 ft 431 kts 224°
2026-05-05 17:19 44.47119 -74.71049 21086 ft 434 kts 224°
2026-05-05 17:19 44.44804 -74.73768 21345 ft 436 kts 224°
2026-05-05 17:19 44.42467 -74.76508 21641 ft 438 kts 224°
2026-05-05 17:20 44.40134 -74.79242 21934 ft 439 kts 224°
2026-05-05 17:20 44.37782 -74.81995 22191 ft 442 kts 224°
2026-05-05 17:20 44.35419 -74.84758 22450 ft 443 kts 224°
2026-05-05 17:20 44.33044 -74.87532 22701 ft 446 kts 224°
2026-05-05 17:21 44.30654 -74.90319 22989 ft 447 kts 224°
2026-05-05 17:21 44.28263 -74.93105 23262 ft 449 kts 224°
2026-05-05 17:21 44.25855 -74.95908 23486 ft 451 kts 224°
2026-05-05 17:22 44.21030 -75.01514 23957 ft 453 kts 224°
2026-05-05 17:22 44.18630 -75.04298 24167 ft 454 kts 224°
2026-05-05 17:22 44.16167 -75.07152 24369 ft 455 kts 224°
2026-05-05 17:22 44.13762 -75.09936 24569 ft 456 kts 224°
2026-05-05 17:23 44.11320 -75.12761 24791 ft 457 kts 224°
2026-05-05 17:23 44.08871 -75.15588 25063 ft 456 kts 224°
2026-05-05 17:23 44.06432 -75.18400 25361 ft 455 kts 224°
2026-05-05 17:23 44.04000 -75.21203 25679 ft 453 kts 224°
2026-05-05 17:24 44.01568 -75.24001 25977 ft 452 kts 224°
2026-05-05 17:24 43.99153 -75.26778 26222 ft 452 kts 224°
2026-05-05 17:24 43.96735 -75.29556 26490 ft 452 kts 224°
2026-05-05 17:24 43.94314 -75.32334 26771 ft 451 kts 224°
2026-05-05 17:25 43.91899 -75.35103 27077 ft 449 kts 224°
2026-05-05 17:25 43.90305 -75.36928 27268 ft 449 kts 224°
2026-05-05 17:25 43.87106 -75.40587 27594 ft 449 kts 225°
2026-05-05 17:25 43.84694 -75.43344 27850 ft 448 kts 224°
2026-05-05 17:26 43.82275 -75.46104 28163 ft 447 kts 225°
2026-05-05 17:26 43.79885 -75.48829 28442 ft 446 kts 225°
2026-05-05 17:26 43.77478 -75.51569 28699 ft 446 kts 225°
2026-05-05 17:27 43.75901 -75.53363 28835 ft 446 kts 225°
2026-05-05 17:27 43.75092 -75.54284 28927 ft 446 kts 225°
2026-05-05 17:28 43.73504 -75.56089 29117 ft 445 kts 225°